Flag for Philippines Weather past 2 weeks in Olongapo, Philippines

Now
79 °F

Passing clouds.


Feels Like: 81 °F
Forecast: 76 / 86 °F
Wind: 8 mph from Northeast

Location: Subic Bay Weather Station

Current Time: Dec 22, 2014 at 11:11:49 PM

Latest Report: Dec 22, 2014 at 10:00 PM


Visibility: N/A

Pressure: 29.89 "Hg

Humidity: 65%

Dew point: 66 °F

Location of OlongapoLocation

Historic Weather in Olongapo — Graph

°F

Olongapo temperature yesterday

Maximum temperature yesterday: 90 °F (at 1:00 PM)
Minimum temperature yesterday: 77 °F (at 2:00 AM)
Average temperature yesterday: 82 °F

Past Weeks' High & Low Weather Summary

 TemperatureHumidityPressure
High90 °F (Dec 12, 12:00 PM)100% (Dec 12, 6:00 AM)30.01 "Hg (Dec 12, 6:00 AM)
Low72 °F (Dec 8, 6:00 AM)49% (Dec 16, 12:00 PM)29.65 "Hg (Dec 8, 2:00 PM)
Average80 °F70%29.86 "Hg
* Reported Dec 7 10:00 PM — Dec 22 10:00 PM, Olongapo, Weather by CustomWeather, © 2014

Note: Actual official high and low records may vary slightly from our data, if they occured in-between our weather recording intervals... More about our weather records

Advertising

Olongapo weather history for previous 24 hours

 ConditionsComfort  
Time TempWeatherWind HumidityBarometerVisibility
10:00 PM
Dec 22
79 °FPassing clouds.8 mph65%29.89 "HgN/A
9:00 PM79 °FPassing clouds.12 mph61%29.86 "HgN/A
8:00 PM79 °FPassing clouds.13 mph70%29.86 "HgN/A
7:00 PM81 °FPassing clouds.12 mph66%29.86 "HgN/A
6:00 PM81 °FPartly cloudy.10 mph66%29.83 "HgN/A
5:00 PM82 °FBroken clouds.10 mph58%29.83 "HgN/A
3:00 PM88 °FPartly sunny.13 mph49%29.80 "HgN/A
2:00 PM86 °FPartly sunny.16 mph52%29.83 "HgN/A
1:00 PM86 °FPartly sunny.16 mph55%29.86 "HgN/A
12:00 PM86 °FPartly sunny.15 mph55%29.89 "HgN/A
11:00 AM82 °FPartly sunny.16 mph58%29.89 "HgN/A
10:00 AM84 °FPartly sunny.15 mph55%29.89 "HgN/A
9:00 AM82 °FPartly sunny.9 mph62%29.89 "HgN/A
8:00 AM81 °FPartly sunny.10 mph62%29.89 "HgN/A
7:00 AM77 °FBroken clouds.9 mph74%29.86 "HgN/A
6:00 AM77 °FPassing clouds.5 mph74%29.83 "HgN/A
5:00 AM79 °FPassing clouds.6 mph70%29.83 "HgN/A
4:00 AM77 °FPassing clouds.5 mph79%29.83 "HgN/A
3:00 AM75 °FPassing clouds.No wind83%29.83 "HgN/A
2:00 AM75 °FPassing clouds.No wind83%29.83 "HgN/A
1:00 AM77 °FPassing clouds.7 mph79%29.86 "HgN/A
12:00 AM77 °FPassing clouds.8 mph79%29.89 "HgN/A
11:00 PM
Dec 21
77 °FPassing clouds.7 mph79%29.89 "HgN/A
Weather by CustomWeather, © 2014

See weather overviewHow to use our weather pages